{"data":{"norad_id":56157,"epoch":"2026-05-25T04:40:16.838976Z","epoch_age_seconds":68895,"freshness":"FRESH","line1":"1 56157U 23048A   26145.19463934 -.00000070  00000+0  33270-4 0  9994","line2":"2 56157  63.3997 157.4086 0065190 354.9692   5.0672 13.45389203154843","mean_motion":13.45389203,"eccentricity":0.006519,"inclination_deg":63.3997,"raan_deg":157.4086,"arg_perigee_deg":354.9692,"mean_anomaly_deg":5.0672,"bstar":3.327e-5,"rev_number":15484,"period_min":107.0322250832,"perigee_km":1040.5909997064,"apogee_km":1137.9510656363,"semimajor_km":7467.4080326714,"source":"CELESTRAK","updated_at":"2026-05-25T13:37:59.366421Z"}}